Year,Month,Day,Hour,Minute,Value (Times are PST for temperature in C)
2013,04,23,00,00,5.30
2013,04,23,00,01,5.30
2013,04,23,00,02,5.20
2013,04,23,00,03,5.20
2013,04,23,00,04,5.10
2013,04,23,00,05,5.10
2013,04,23,00,06,5.10
2013,04,23,00,07,5.10
2013,04,23,00,08,5.10
2013,04,23,00,09,5.00
2013,04,23,00,10,4.90
2013,04,23,00,11,4.90
2013,04,23,00,12,4.90
2013,04,23,00,13,4.90
2013,04,23,00,14,4.80
2013,04,23,00,15,4.80
2013,04,23,00,16,4.80
2013,04,23,00,17,4.80
2013,04,23,00,18,4.80
2013,04,23,00,19,4.80
2013,04,23,00,20,4.80
2013,04,23,00,21,4.80
2013,04,23,00,22,4.70
2013,04,23,00,23,4.70
2013,04,23,00,24,4.70
2013,04,23,00,25,4.70
2013,04,23,00,26,4.60
2013,04,23,00,27,4.60
2013,04,23,00,28,4.60
2013,04,23,00,29,4.60
2013,04,23,00,30,4.50
2013,04,23,00,31,4.50
2013,04,23,00,32,4.50
2013,04,23,00,33,4.50
2013,04,23,00,34,4.50
2013,04,23,00,35,4.40
2013,04,23,00,36,4.40
2013,04,23,00,37,4.40
2013,04,23,00,38,4.40
2013,04,23,00,39,4.40
2013,04,23,00,40,4.40
2013,04,23,00,41,4.30
2013,04,23,00,42,4.30
2013,04,23,00,43,4.30
2013,04,23,00,44,4.40
2013,04,23,00,45,4.40
2013,04,23,00,46,4.40
2013,04,23,00,47,4.40
2013,04,23,00,48,4.30
2013,04,23,00,49,4.20
2013,04,23,00,50,4.20
2013,04,23,00,51,4.10
2013,04,23,00,52,4.00
2013,04,23,00,53,4.00
2013,04,23,00,54,3.90
2013,04,23,00,55,3.90
2013,04,23,00,56,4.00
2013,04,23,00,57,4.00
2013,04,23,00,58,4.00
2013,04,23,00,59,4.10
2013,04,23,01,00,4.20
2013,04,23,01,01,4.20
2013,04,23,01,02,4.20
2013,04,23,01,03,4.20
2013,04,23,01,04,4.30
2013,04,23,01,05,4.30
2013,04,23,01,06,4.30
2013,04,23,01,07,4.30
2013,04,23,01,08,4.30
2013,04,23,01,09,4.20
2013,04,23,01,10,4.20
2013,04,23,01,11,4.30
2013,04,23,01,12,4.40
2013,04,23,01,13,4.40
2013,04,23,01,14,4.50
2013,04,23,01,15,4.60
2013,04,23,01,16,4.60
2013,04,23,01,17,4.60
2013,04,23,01,18,4.60
2013,04,23,01,19,4.60
2013,04,23,01,20,4.60
2013,04,23,01,21,4.60
2013,04,23,01,22,4.60
2013,04,23,01,23,4.60
2013,04,23,01,24,4.60
2013,04,23,01,25,4.60
2013,04,23,01,26,4.60
2013,04,23,01,27,4.50
2013,04,23,01,28,4.50
2013,04,23,01,29,4.50
2013,04,23,01,30,4.40
2013,04,23,01,31,4.40
2013,04,23,01,32,4.30
2013,04,23,01,33,4.20
2013,04,23,01,34,4.20
2013,04,23,01,35,4.20
2013,04,23,01,36,4.20
2013,04,23,01,37,4.10
2013,04,23,01,38,4.10
2013,04,23,01,39,4.00
2013,04,23,01,40,4.00
2013,04,23,01,41,3.90
2013,04,23,01,42,3.90
2013,04,23,01,43,3.80
2013,04,23,01,44,3.80
2013,04,23,01,45,3.80
2013,04,23,01,46,3.70
2013,04,23,01,47,3.70
2013,04,23,01,48,3.60
2013,04,23,01,49,3.60
2013,04,23,01,50,3.60
2013,04,23,01,51,3.50
2013,04,23,01,52,3.60
2013,04,23,01,53,3.60
2013,04,23,01,54,3.60
2013,04,23,01,55,3.70
2013,04,23,01,56,3.70
2013,04,23,01,57,3.80
2013,04,23,01,58,3.80
2013,04,23,01,59,3.90
2013,04,23,02,00,4.00
2013,04,23,02,01,4.00
2013,04,23,02,02,4.00
2013,04,23,02,03,4.00
2013,04,23,02,04,4.00
2013,04,23,02,05,3.90
2013,04,23,02,06,3.80
2013,04,23,02,07,3.80
2013,04,23,02,08,3.60
2013,04,23,02,09,3.60
2013,04,23,02,10,3.50
2013,04,23,02,11,3.40
2013,04,23,02,12,3.40
2013,04,23,02,13,3.30
2013,04,23,02,14,3.30
2013,04,23,02,15,3.30
2013,04,23,02,16,3.20
2013,04,23,02,17,3.20
2013,04,23,02,18,3.10
2013,04,23,02,19,3.10
2013,04,23,02,20,3.10
2013,04,23,02,21,3.10
2013,04,23,02,22,3.10
2013,04,23,02,23,3.10
2013,04,23,02,24,3.10
2013,04,23,02,25,3.10
2013,04,23,02,26,3.10
2013,04,23,02,27,3.10
2013,04,23,02,28,3.10
2013,04,23,02,29,3.10
2013,04,23,02,30,3.10
2013,04,23,02,31,3.10
2013,04,23,02,32,3.10
2013,04,23,02,33,3.10
2013,04,23,02,34,3.10
2013,04,23,02,35,3.10
2013,04,23,02,36,3.10
2013,04,23,02,37,3.00
2013,04,23,02,38,2.90
2013,04,23,02,39,2.90
2013,04,23,02,40,2.90
2013,04,23,02,41,2.90
2013,04,23,02,42,2.90
2013,04,23,02,43,2.90
2013,04,23,02,44,2.90
2013,04,23,02,45,2.90
2013,04,23,02,46,2.80
2013,04,23,02,47,2.80
2013,04,23,02,48,2.80
2013,04,23,02,49,2.80
2013,04,23,02,50,2.80
2013,04,23,02,51,2.80
2013,04,23,02,52,2.80
2013,04,23,02,53,2.80
2013,04,23,02,54,2.90
2013,04,23,02,55,2.90
2013,04,23,02,56,2.90
2013,04,23,02,57,3.00
2013,04,23,02,58,3.10
2013,04,23,02,59,3.10
2013,04,23,03,00,3.10
2013,04,23,03,01,3.10
2013,04,23,03,02,3.10
2013,04,23,03,03,3.10
2013,04,23,03,04,3.10
2013,04,23,03,05,3.10
2013,04,23,03,06,3.00
2013,04,23,03,07,2.90
2013,04,23,03,08,2.90
2013,04,23,03,09,2.90
2013,04,23,03,10,2.90
2013,04,23,03,11,2.80
2013,04,23,03,12,2.80
2013,04,23,03,13,2.80
2013,04,23,03,14,2.70
2013,04,23,03,15,2.70
2013,04,23,03,16,2.70
2013,04,23,03,17,2.70
2013,04,23,03,18,2.70
2013,04,23,03,19,2.70
2013,04,23,03,20,2.70
2013,04,23,03,21,2.80
2013,04,23,03,22,2.80
2013,04,23,03,23,2.90
2013,04,23,03,24,2.90
2013,04,23,03,25,2.90
2013,04,23,03,26,2.90
2013,04,23,03,27,2.90
2013,04,23,03,28,2.90
2013,04,23,03,29,2.90
2013,04,23,03,30,2.90
2013,04,23,03,31,2.80
2013,04,23,03,32,2.80
2013,04,23,03,33,2.80
2013,04,23,03,34,2.80
2013,04,23,03,35,2.80
2013,04,23,03,36,2.70
2013,04,23,03,37,2.70
2013,04,23,03,38,2.70
2013,04,23,03,39,2.70
2013,04,23,03,40,2.70
2013,04,23,03,41,2.70
2013,04,23,03,42,2.60
2013,04,23,03,43,2.60
2013,04,23,03,44,2.50
2013,04,23,03,45,2.50
2013,04,23,03,46,2.40
2013,04,23,03,47,2.40
2013,04,23,03,48,2.40
2013,04,23,03,49,2.50
2013,04,23,03,50,2.50
2013,04,23,03,51,2.50
2013,04,23,03,52,2.50
2013,04,23,03,53,2.50
2013,04,23,03,54,2.60
2013,04,23,03,55,2.60
2013,04,23,03,56,2.60
2013,04,23,03,57,2.60
2013,04,23,03,58,2.70
2013,04,23,03,59,2.70
2013,04,23,04,00,2.70
2013,04,23,04,01,2.70
2013,04,23,04,02,2.70
2013,04,23,04,03,2.70
2013,04,23,04,04,2.70
2013,04,23,04,05,2.70
2013,04,23,04,06,2.70
2013,04,23,04,07,2.70
2013,04,23,04,08,2.70
2013,04,23,04,09,2.70
2013,04,23,04,10,2.60
2013,04,23,04,11,2.60
2013,04,23,04,12,2.60
2013,04,23,04,13,2.60
2013,04,23,04,14,2.60
2013,04,23,04,15,2.70
2013,04,23,04,16,2.70
2013,04,23,04,17,2.70
2013,04,23,04,18,2.70
2013,04,23,04,19,2.70
2013,04,23,04,20,2.70
2013,04,23,04,21,2.70
2013,04,23,04,22,2.60
2013,04,23,04,23,2.60
2013,04,23,04,24,2.50
2013,04,23,04,25,2.50
2013,04,23,04,26,2.50
2013,04,23,04,27,2.40
2013,04,23,04,28,2.40
2013,04,23,04,29,2.40
2013,04,23,04,30,2.40
2013,04,23,04,31,2.40
2013,04,23,04,32,2.40
2013,04,23,04,33,2.40
2013,04,23,04,34,2.40
2013,04,23,04,35,2.40
2013,04,23,04,36,2.30
2013,04,23,04,37,2.30
2013,04,23,04,38,2.30
2013,04,23,04,39,2.20
2013,04,23,04,40,2.20
2013,04,23,04,41,2.20
2013,04,23,04,42,2.20
2013,04,23,04,43,2.20
2013,04,23,04,44,2.30
2013,04,23,04,45,2.30
2013,04,23,04,46,2.30
2013,04,23,04,47,2.30
2013,04,23,04,48,2.30
2013,04,23,04,49,2.30
2013,04,23,04,50,2.30
2013,04,23,04,51,2.30
2013,04,23,04,52,2.30
2013,04,23,04,53,2.30
2013,04,23,04,54,2.30
2013,04,23,04,55,2.30
2013,04,23,04,56,2.30
2013,04,23,04,57,2.40
2013,04,23,04,58,2.40
2013,04,23,04,59,2.50
2013,04,23,05,00,2.50
2013,04,23,05,01,2.50
2013,04,23,05,02,2.40
2013,04,23,05,03,2.40
2013,04,23,05,04,2.50
2013,04,23,05,05,2.50
2013,04,23,05,06,2.50
2013,04,23,05,07,2.50
2013,04,23,05,08,2.40
2013,04,23,05,09,2.40
2013,04,23,05,10,2.40
2013,04,23,05,11,2.30
2013,04,23,05,12,2.30
2013,04,23,05,13,2.40
2013,04,23,05,14,2.40
2013,04,23,05,15,2.50
2013,04,23,05,16,2.60
2013,04,23,05,17,2.60
2013,04,23,05,18,2.70
2013,04,23,05,19,2.70
2013,04,23,05,20,2.80
2013,04,23,05,21,2.80
2013,04,23,05,22,2.70
2013,04,23,05,23,2.70
2013,04,23,05,24,2.70
2013,04,23,05,25,2.60
2013,04,23,05,26,2.60
2013,04,23,05,27,2.70
2013,04,23,05,28,2.70
2013,04,23,05,29,2.60
2013,04,23,05,30,2.50
2013,04,23,05,31,2.50
2013,04,23,05,32,2.40
2013,04,23,05,33,2.30
2013,04,23,05,34,2.20
2013,04,23,05,35,2.30
2013,04,23,05,36,2.30
2013,04,23,05,37,2.30
2013,04,23,05,38,2.30
2013,04,23,05,39,2.30
2013,04,23,05,40,2.30
2013,04,23,05,41,2.30
2013,04,23,05,42,2.30
2013,04,23,05,43,2.30
2013,04,23,05,44,2.30
2013,04,23,05,45,2.30
2013,04,23,05,46,2.30
2013,04,23,05,47,2.40
2013,04,23,05,48,2.40
2013,04,23,05,49,2.40
2013,04,23,05,50,2.40
2013,04,23,05,51,2.40
2013,04,23,05,52,2.40
2013,04,23,05,53,2.40
2013,04,23,05,54,2.40
2013,04,23,05,55,2.40
2013,04,23,05,56,2.40
2013,04,23,05,57,2.40
2013,04,23,05,58,2.40
2013,04,23,05,59,2.40
2013,04,23,06,00,2.40
2013,04,23,06,01,2.50
2013,04,23,06,02,2.50
2013,04,23,06,03,2.50
2013,04,23,06,04,2.50
2013,04,23,06,05,2.50
2013,04,23,06,06,2.50
2013,04,23,06,07,2.50
2013,04,23,06,08,2.50
2013,04,23,06,09,2.50
2013,04,23,06,10,2.50
2013,04,23,06,11,2.50
2013,04,23,06,12,2.50
2013,04,23,06,13,2.50
2013,04,23,06,14,2.50
2013,04,23,06,15,2.40
2013,04,23,06,16,2.40
2013,04,23,06,17,2.40
2013,04,23,06,18,2.40
2013,04,23,06,19,2.40
2013,04,23,06,20,2.50
2013,04,23,06,21,2.50
2013,04,23,06,22,2.50
2013,04,23,06,23,2.60
2013,04,23,06,24,2.60
2013,04,23,06,25,2.60
2013,04,23,06,26,2.70
2013,04,23,06,27,2.70
2013,04,23,06,28,2.70
2013,04,23,06,29,2.70
2013,04,23,06,30,2.70
2013,04,23,06,31,2.70
2013,04,23,06,32,2.70
2013,04,23,06,33,2.80
2013,04,23,06,34,2.80
2013,04,23,06,35,2.90
2013,04,23,06,36,3.00
2013,04,23,06,37,3.10
2013,04,23,06,38,3.20
2013,04,23,06,39,3.30
2013,04,23,06,40,3.30
2013,04,23,06,41,3.30
2013,04,23,06,42,3.40
2013,04,23,06,43,3.40
2013,04,23,06,44,3.40
2013,04,23,06,45,3.40
2013,04,23,06,46,3.40
2013,04,23,06,47,3.50
2013,04,23,06,48,3.50
2013,04,23,06,49,3.50
2013,04,23,06,50,3.40
2013,04,23,06,51,3.40
2013,04,23,06,52,3.30
2013,04,23,06,53,3.30
2013,04,23,06,54,3.30
2013,04,23,06,55,3.20
2013,04,23,06,56,3.20
2013,04,23,06,57,3.10
2013,04,23,06,58,3.10
2013,04,23,06,59,3.10
2013,04,23,07,00,3.10
2013,04,23,07,01,3.10
2013,04,23,07,02,3.10
2013,04,23,07,03,3.10
2013,04,23,07,04,3.10
2013,04,23,07,05,3.20
2013,04,23,07,06,3.20
2013,04,23,07,07,3.30
2013,04,23,07,08,3.40
2013,04,23,07,09,3.50
2013,04,23,07,10,3.50
2013,04,23,07,11,3.60
2013,04,23,07,12,3.60
2013,04,23,07,13,3.70
2013,04,23,07,14,3.70
2013,04,23,07,15,3.80
2013,04,23,07,16,3.80
2013,04,23,07,17,3.80
2013,04,23,07,18,3.80
2013,04,23,07,19,3.90
2013,04,23,07,20,3.90
2013,04,23,07,21,4.00
2013,04,23,07,22,4.00
2013,04,23,07,23,4.00
2013,04,23,07,24,4.00
2013,04,23,07,25,4.00
2013,04,23,07,26,4.00
2013,04,23,07,27,4.00
2013,04,23,07,28,4.00
2013,04,23,07,29,4.00
2013,04,23,07,30,4.00
2013,04,23,07,31,4.00
2013,04,23,07,32,4.00
2013,04,23,07,33,4.10
2013,04,23,07,34,4.10
2013,04,23,07,35,4.10
2013,04,23,07,36,4.10
2013,04,23,07,37,4.20
2013,04,23,07,38,4.20
2013,04,23,07,39,4.20
2013,04,23,07,40,4.20
2013,04,23,07,41,4.30
2013,04,23,07,42,4.30
2013,04,23,07,43,4.30
2013,04,23,07,44,4.40
2013,04,23,07,45,4.40
2013,04,23,07,46,4.50
2013,04,23,07,47,4.50
2013,04,23,07,48,4.50
2013,04,23,07,49,4.60
2013,04,23,07,50,4.70
2013,04,23,07,51,4.70
2013,04,23,07,52,4.70
2013,04,23,07,53,4.80
2013,04,23,07,54,4.80
2013,04,23,07,55,4.80
2013,04,23,07,56,4.90
2013,04,23,07,57,4.90
2013,04,23,07,58,4.90
2013,04,23,07,59,4.90
2013,04,23,08,00,4.90
2013,04,23,08,01,5.00
2013,04,23,08,02,5.10
2013,04,23,08,03,5.10
2013,04,23,08,04,5.10
2013,04,23,08,05,5.10
2013,04,23,08,06,5.10
2013,04,23,08,07,5.10
2013,04,23,08,08,5.10
2013,04,23,08,09,5.10
2013,04,23,08,10,5.10
2013,04,23,08,11,5.20
2013,04,23,08,12,5.20
2013,04,23,08,13,5.20
2013,04,23,08,14,5.20
2013,04,23,08,15,5.20
2013,04,23,08,16,5.20
2013,04,23,08,17,5.20
2013,04,23,08,18,5.20
2013,04,23,08,19,5.20
2013,04,23,08,20,5.20
2013,04,23,08,21,5.30
2013,04,23,08,22,5.30
2013,04,23,08,23,5.30
2013,04,23,08,24,5.30
2013,04,23,08,25,5.40
2013,04,23,08,26,5.40
2013,04,23,08,27,5.50
2013,04,23,08,28,5.50
2013,04,23,08,29,5.60
2013,04,23,08,30,5.60
2013,04,23,08,31,5.70
2013,04,23,08,32,5.70
2013,04,23,08,33,5.70
2013,04,23,08,34,5.70
2013,04,23,08,35,5.80
2013,04,23,08,36,5.80
2013,04,23,08,37,5.80
2013,04,23,08,38,5.90
2013,04,23,08,39,5.90
2013,04,23,08,40,6.00
2013,04,23,08,41,6.00
2013,04,23,08,42,6.00
2013,04,23,08,43,6.10
2013,04,23,08,44,6.20
2013,04,23,08,45,6.20
2013,04,23,08,46,6.30
2013,04,23,08,47,6.40
2013,04,23,08,48,6.40
2013,04,23,08,49,6.50
2013,04,23,08,50,6.60
2013,04,23,08,51,6.70
2013,04,23,08,52,6.80
2013,04,23,08,53,6.80
2013,04,23,08,54,6.80
2013,04,23,08,55,6.90
2013,04,23,08,56,6.90
2013,04,23,08,57,7.00
2013,04,23,08,58,7.10
2013,04,23,08,59,7.10
2013,04,23,09,00,7.20
2013,04,23,09,01,7.30
2013,04,23,09,02,7.30
2013,04,23,09,03,7.40
2013,04,23,09,04,7.40
2013,04,23,09,05,7.50
2013,04,23,09,06,7.50
2013,04,23,09,07,7.60
2013,04,23,09,08,7.60
2013,04,23,09,09,7.70
2013,04,23,09,10,7.80
2013,04,23,09,11,7.80
2013,04,23,09,12,7.80
2013,04,23,09,13,7.80
2013,04,23,09,14,7.80
2013,04,23,09,15,7.90
2013,04,23,09,16,7.90
2013,04,23,09,17,7.90
2013,04,23,09,18,7.90
2013,04,23,09,19,8.00
2013,04,23,09,20,8.00
2013,04,23,09,21,8.10
2013,04,23,09,22,8.20
2013,04,23,09,23,8.20
2013,04,23,09,24,8.30
2013,04,23,09,25,8.30
2013,04,23,09,26,8.30
2013,04,23,09,27,8.30
2013,04,23,09,28,8.40
2013,04,23,09,29,8.50
2013,04,23,09,30,8.60
2013,04,23,09,31,8.70
2013,04,23,09,32,8.70
2013,04,23,09,33,8.90
2013,04,23,09,34,9.00
2013,04,23,09,35,9.10
2013,04,23,09,36,9.20
2013,04,23,09,37,9.30
2013,04,23,09,38,9.50
2013,04,23,09,39,9.60
2013,04,23,09,40,9.70
2013,04,23,09,41,9.80
2013,04,23,09,42,10.00
2013,04,23,09,43,10.10
2013,04,23,09,44,10.20
2013,04,23,09,45,10.30
2013,04,23,09,46,10.40
2013,04,23,09,47,10.40
2013,04,23,09,48,10.30
2013,04,23,09,49,10.20
2013,04,23,09,50,10.20
2013,04,23,09,51,10.20
2013,04,23,09,52,10.20
2013,04,23,09,53,10.20
2013,04,23,09,54,10.20
2013,04,23,09,55,10.20
2013,04,23,09,56,10.30
2013,04,23,09,57,10.30
2013,04,23,09,58,10.30
2013,04,23,09,59,10.30
2013,04,23,10,00,10.30
2013,04,23,10,01,10.40
2013,04,23,10,02,10.50
2013,04,23,10,03,10.60
2013,04,23,10,04,10.60
2013,04,23,10,05,10.60
2013,04,23,10,06,10.70
2013,04,23,10,07,10.80
2013,04,23,10,08,10.90
2013,04,23,10,09,11.00
2013,04,23,10,10,11.10
2013,04,23,10,11,11.20
2013,04,23,10,12,11.20
2013,04,23,10,13,11.10
2013,04,23,10,14,11.00
2013,04,23,10,15,10.90
2013,04,23,10,16,10.80
2013,04,23,10,17,10.80
2013,04,23,10,18,10.90
2013,04,23,10,19,10.90
2013,04,23,10,20,10.80
2013,04,23,10,21,10.70
2013,04,23,10,22,10.70
2013,04,23,10,23,10.60
2013,04,23,10,24,10.70
2013,04,23,10,25,10.80
2013,04,23,10,26,10.80
2013,04,23,10,27,10.80
2013,04,23,10,28,10.90
2013,04,23,10,29,10.70
2013,04,23,10,30,10.60
2013,04,23,10,31,10.50
2013,04,23,10,32,10.40
2013,04,23,10,33,10.40
2013,04,23,10,34,10.40
2013,04,23,10,35,10.40
2013,04,23,10,36,10.40
2013,04,23,10,37,10.40
2013,04,23,10,38,10.30
2013,04,23,10,39,10.30
2013,04,23,10,40,10.20
2013,04,23,10,41,10.20
2013,04,23,10,42,10.20
2013,04,23,10,43,10.30
2013,04,23,10,44,10.30
2013,04,23,10,45,10.30
2013,04,23,10,46,10.30
2013,04,23,10,47,10.20
2013,04,23,10,48,10.20
2013,04,23,10,49,10.20
2013,04,23,10,50,10.20
2013,04,23,10,51,10.40
2013,04,23,10,52,10.40
2013,04,23,10,53,10.40
2013,04,23,10,54,10.60
2013,04,23,10,55,10.60
2013,04,23,10,56,10.60
2013,04,23,10,57,10.70
2013,04,23,10,58,10.70
2013,04,23,10,59,10.80
2013,04,23,11,00,10.80
2013,04,23,11,01,10.90
2013,04,23,11,02,10.90
2013,04,23,11,03,10.90
2013,04,23,11,04,11.00
2013,04,23,11,05,11.10
2013,04,23,11,06,11.20
2013,04,23,11,07,11.20
2013,04,23,11,08,11.30
2013,04,23,11,09,11.30
2013,04,23,11,10,11.20
2013,04,23,11,11,11.20
2013,04,23,11,12,11.20
2013,04,23,11,13,11.20
2013,04,23,11,14,11.30
2013,04,23,11,15,11.30
2013,04,23,11,16,11.40
2013,04,23,11,17,11.50
2013,04,23,11,18,11.60
2013,04,23,11,19,11.60
2013,04,23,11,20,11.60
2013,04,23,11,21,11.70
2013,04,23,11,22,11.80
2013,04,23,11,23,11.80
2013,04,23,11,24,11.90
2013,04,23,11,25,12.10
2013,04,23,11,26,12.20
2013,04,23,11,27,12.30
2013,04,23,11,28,12.50
2013,04,23,11,29,12.60
2013,04,23,11,30,12.60
2013,04,23,11,31,12.60
2013,04,23,11,32,12.60
2013,04,23,11,33,12.70
2013,04,23,11,34,12.80
2013,04,23,11,35,12.80
2013,04,23,11,36,12.80
2013,04,23,11,37,13.00
2013,04,23,11,38,13.00
2013,04,23,11,39,13.10
2013,04,23,11,40,13.20
2013,04,23,11,41,13.00
2013,04,23,11,42,13.00
2013,04,23,11,43,13.10
2013,04,23,11,44,13.10
2013,04,23,11,45,13.20
2013,04,23,11,46,13.20
2013,04,23,11,47,13.30
2013,04,23,11,48,13.40
2013,04,23,11,49,13.40
2013,04,23,11,50,13.40
2013,04,23,11,51,13.40
2013,04,23,11,52,13.40
2013,04,23,11,53,13.40
2013,04,23,11,54,13.30
2013,04,23,11,55,13.40
2013,04,23,11,56,13.50
2013,04,23,11,57,13.70
2013,04,23,11,58,13.90
2013,04,23,11,59,14.00
2013,04,23,12,00,14.10
2013,04,23,12,01,14.10
2013,04,23,12,02,14.10
2013,04,23,12,03,14.10
2013,04,23,12,04,14.00
2013,04,23,12,05,14.00
2013,04,23,12,06,14.00
2013,04,23,12,07,14.10
2013,04,23,12,08,14.00
2013,04,23,12,09,14.10
2013,04,23,12,10,14.10
2013,04,23,12,11,14.10
2013,04,23,12,12,14.20
2013,04,23,12,13,14.40
2013,04,23,12,14,14.40
2013,04,23,12,15,14.30
2013,04,23,12,16,14.20
2013,04,23,12,17,14.10
2013,04,23,12,18,13.90
2013,04,23,12,19,13.80
2013,04,23,12,20,13.70
2013,04,23,12,21,13.70
2013,04,23,12,22,13.60
2013,04,23,12,23,13.70
2013,04,23,12,24,13.70
2013,04,23,12,25,13.80
2013,04,23,12,26,13.70
2013,04,23,12,27,13.40
2013,04,23,12,28,13.20
2013,04,23,12,29,13.20
2013,04,23,12,30,13.10
2013,04,23,12,31,13.20
2013,04,23,12,32,13.30
2013,04,23,12,33,13.30
2013,04,23,12,34,13.20
2013,04,23,12,35,13.10
2013,04,23,12,36,13.00
2013,04,23,12,37,13.00
2013,04,23,12,38,13.10
2013,04,23,12,39,13.10
2013,04,23,12,40,13.20
2013,04,23,12,41,13.30
2013,04,23,12,42,13.30
2013,04,23,12,43,13.30
2013,04,23,12,44,13.40
2013,04,23,12,45,13.60
2013,04,23,12,46,13.70
2013,04,23,12,47,13.60
2013,04,23,12,48,13.50
2013,04,23,12,49,13.40
2013,04,23,12,50,13.50
2013,04,23,12,51,13.60
2013,04,23,12,52,13.60
2013,04,23,12,53,13.60
2013,04,23,12,54,13.70
2013,04,23,12,55,13.90
2013,04,23,12,56,14.00
2013,04,23,12,57,14.00
2013,04,23,12,58,13.90
2013,04,23,12,59,13.90
2013,04,23,13,00,14.10
2013,04,23,13,01,14.20
2013,04,23,13,02,14.20
2013,04,23,13,03,14.20
2013,04,23,13,04,14.20
2013,04,23,13,05,14.20
2013,04,23,13,06,14.10
2013,04,23,13,07,14.00
2013,04,23,13,08,14.00
2013,04,23,13,09,14.10
2013,04,23,13,10,14.20
2013,04,23,13,11,14.20
2013,04,23,13,12,14.20
2013,04,23,13,13,14.20
2013,04,23,13,14,14.20
2013,04,23,13,15,14.40
2013,04,23,13,16,14.70
2013,04,23,13,17,14.80
2013,04,23,13,18,14.80
2013,04,23,13,19,14.80
2013,04,23,13,20,14.80
2013,04,23,13,21,14.80
2013,04,23,13,22,14.70
2013,04,23,13,23,14.70
2013,04,23,13,24,14.80
2013,04,23,13,25,14.70
2013,04,23,13,26,14.60
2013,04,23,13,27,14.60
2013,04,23,13,28,14.50
2013,04,23,13,29,14.60
2013,04,23,13,30,14.50
2013,04,23,13,31,14.40
2013,04,23,13,32,14.40
2013,04,23,13,33,14.50
2013,04,23,13,34,14.60
2013,04,23,13,35,14.80
2013,04,23,13,36,14.90
2013,04,23,13,37,14.80
2013,04,23,13,38,14.60
2013,04,23,13,39,14.50
2013,04,23,13,40,14.50
2013,04,23,13,41,14.70
2013,04,23,13,42,14.80
2013,04,23,13,43,14.80
2013,04,23,13,44,14.80
2013,04,23,13,45,14.90
2013,04,23,13,46,14.90
2013,04,23,13,47,15.00
2013,04,23,13,48,15.10
2013,04,23,13,49,15.10
2013,04,23,13,50,15.10
2013,04,23,13,51,15.10
2013,04,23,13,52,15.10
2013,04,23,13,53,15.00
2013,04,23,13,54,14.90
2013,04,23,13,55,14.90
2013,04,23,13,56,15.00
2013,04,23,13,57,15.10
2013,04,23,13,58,15.10
2013,04,23,13,59,15.10
2013,04,23,14,00,15.20
2013,04,23,14,01,15.20
2013,04,23,14,02,15.30
2013,04,23,14,03,15.30
2013,04,23,14,04,15.10
2013,04,23,14,05,14.90
2013,04,23,14,06,14.90
2013,04,23,14,07,14.70
2013,04,23,14,08,14.70
2013,04,23,14,09,14.60
2013,04,23,14,10,14.50
2013,04,23,14,11,14.40
2013,04,23,14,12,14.40
2013,04,23,14,13,14.50
2013,04,23,14,14,14.70
2013,04,23,14,15,14.80
2013,04,23,14,16,14.90
2013,04,23,14,17,15.10
2013,04,23,14,18,15.20
2013,04,23,14,19,15.20
2013,04,23,14,20,15.30
2013,04,23,14,21,15.40
2013,04,23,14,22,15.40
2013,04,23,14,23,15.50
2013,04,23,14,24,15.80
2013,04,23,14,25,16.10
2013,04,23,14,26,16.30
2013,04,23,14,27,16.40
2013,04,23,14,28,16.60
2013,04,23,14,29,16.60
2013,04,23,14,30,16.40
2013,04,23,14,31,16.30
2013,04,23,14,32,16.30
2013,04,23,14,33,16.40
2013,04,23,14,34,16.20
2013,04,23,14,35,16.00
2013,04,23,14,36,15.90
2013,04,23,14,37,15.80
2013,04,23,14,38,15.70
2013,04,23,14,39,15.70
2013,04,23,14,40,15.50
2013,04,23,14,41,15.30
2013,04,23,14,42,15.20
2013,04,23,14,43,15.20
2013,04,23,14,44,15.20
2013,04,23,14,45,15.30
2013,04,23,14,46,15.40
2013,04,23,14,47,15.50
2013,04,23,14,48,15.50
2013,04,23,14,49,15.40
2013,04,23,14,50,15.40
2013,04,23,14,51,15.50
2013,04,23,14,52,15.50
2013,04,23,14,53,15.50
2013,04,23,14,54,15.40
2013,04,23,14,55,15.40
2013,04,23,14,56,15.40
2013,04,23,14,57,15.30
2013,04,23,14,58,15.20
2013,04,23,14,59,15.20
2013,04,23,15,00,15.30
2013,04,23,15,01,15.50
2013,04,23,15,02,15.50
2013,04,23,15,03,15.60
2013,04,23,15,04,15.70
2013,04,23,15,05,15.80
2013,04,23,15,06,16.00
2013,04,23,15,07,16.10
2013,04,23,15,08,16.10
2013,04,23,15,09,15.90
2013,04,23,15,10,15.80
2013,04,23,15,11,15.90
2013,04,23,15,12,15.80
2013,04,23,15,13,15.80
2013,04,23,15,14,15.80
2013,04,23,15,15,15.90
2013,04,23,15,16,16.00
2013,04,23,15,17,16.20
2013,04,23,15,18,16.20
2013,04,23,15,19,16.10
2013,04,23,15,20,16.00
2013,04,23,15,21,15.80
2013,04,23,15,22,15.70
2013,04,23,15,23,15.70
2013,04,23,15,24,15.60
2013,04,23,15,25,15.60
2013,04,23,15,26,15.60
2013,04,23,15,27,15.50
2013,04,23,15,28,15.50
2013,04,23,15,29,15.50
2013,04,23,15,30,15.40
2013,04,23,15,31,15.20
2013,04,23,15,32,15.10
2013,04,23,15,33,15.10
2013,04,23,15,34,15.00
2013,04,23,15,35,15.10
2013,04,23,15,36,15.00
2013,04,23,15,37,15.00
2013,04,23,15,38,15.10
2013,04,23,15,39,15.20
2013,04,23,15,40,15.30
2013,04,23,15,41,15.30
2013,04,23,15,42,15.20
2013,04,23,15,43,15.20
2013,04,23,15,44,15.10
2013,04,23,15,45,15.10
2013,04,23,15,46,15.30
2013,04,23,15,47,15.30
2013,04,23,15,48,15.40
2013,04,23,15,49,15.40
2013,04,23,15,50,15.40
2013,04,23,15,51,15.20
2013,04,23,15,52,15.00
2013,04,23,15,53,14.80
2013,04,23,15,54,14.80
2013,04,23,15,55,14.90
2013,04,23,15,56,14.90
2013,04,23,15,57,14.90
2013,04,23,15,58,14.70
2013,04,23,15,59,14.70
2013,04,23,16,00,14.70
2013,04,23,16,01,14.80
2013,04,23,16,02,14.80
2013,04,23,16,03,14.80
2013,04,23,16,04,14.80
2013,04,23,16,05,14.90
2013,04,23,16,06,14.90
2013,04,23,16,07,15.00
2013,04,23,16,08,14.90
2013,04,23,16,09,15.00
2013,04,23,16,10,15.00
2013,04,23,16,11,15.00
2013,04,23,16,12,14.90
2013,04,23,16,13,14.80
2013,04,23,16,14,14.80
2013,04,23,16,15,14.80
2013,04,23,16,16,14.70
2013,04,23,16,17,14.80
2013,04,23,16,18,14.90
2013,04,23,16,19,15.10
2013,04,23,16,20,15.20
2013,04,23,16,21,15.00
2013,04,23,16,22,14.90
2013,04,23,16,23,14.80
2013,04,23,16,24,14.80
2013,04,23,16,25,14.90
2013,04,23,16,26,14.80
2013,04,23,16,27,14.80
2013,04,23,16,28,14.70
2013,04,23,16,29,14.80
2013,04,23,16,30,14.80
2013,04,23,16,31,14.80
2013,04,23,16,32,14.80
2013,04,23,16,33,14.80
2013,04,23,16,34,14.70
2013,04,23,16,35,14.60
2013,04,23,16,36,14.70
2013,04,23,16,37,14.70
2013,04,23,16,38,14.70
2013,04,23,16,39,14.90
2013,04,23,16,40,15.00
2013,04,23,16,41,15.10
2013,04,23,16,42,15.10
2013,04,23,16,43,15.10
2013,04,23,16,44,15.10
2013,04,23,16,45,15.20
2013,04,23,16,46,15.30
2013,04,23,16,47,15.10
2013,04,23,16,48,15.00
2013,04,23,16,49,14.90
2013,04,23,16,50,14.80
2013,04,23,16,51,14.90
2013,04,23,16,52,14.90
2013,04,23,16,53,14.80
2013,04,23,16,54,14.80
2013,04,23,16,55,14.90
2013,04,23,16,56,14.90
2013,04,23,16,57,14.80
2013,04,23,16,58,14.90
2013,04,23,16,59,14.90
2013,04,23,17,00,14.90
2013,04,23,17,01,15.00
2013,04,23,17,02,15.10
2013,04,23,17,03,15.10
2013,04,23,17,04,15.00
2013,04,23,17,05,15.00
2013,04,23,17,06,15.10
2013,04,23,17,07,15.00
2013,04,23,17,08,15.00
2013,04,23,17,09,14.90
2013,04,23,17,10,14.90
2013,04,23,17,11,15.00
2013,04,23,17,12,15.10
2013,04,23,17,13,15.00
2013,04,23,17,14,14.90
2013,04,23,17,15,14.90
2013,04,23,17,16,14.90
2013,04,23,17,17,14.80
2013,04,23,17,18,14.90
2013,04,23,17,19,14.90
2013,04,23,17,20,15.00
2013,04,23,17,21,14.90
2013,04,23,17,22,14.90
2013,04,23,17,23,14.90
2013,04,23,17,24,15.00
2013,04,23,17,25,15.00
2013,04,23,17,26,15.00
2013,04,23,17,27,15.00
2013,04,23,17,28,15.00
2013,04,23,17,29,15.00
2013,04,23,17,30,15.00
2013,04,23,17,31,15.00
2013,04,23,17,32,15.00
2013,04,23,17,33,15.00
2013,04,23,17,34,15.10
2013,04,23,17,35,15.10
2013,04,23,17,36,15.10
2013,04,23,17,37,15.00
2013,04,23,17,38,15.00
2013,04,23,17,39,15.00
2013,04,23,17,40,15.10
2013,04,23,17,41,15.10
2013,04,23,17,42,15.10
2013,04,23,17,43,15.00
2013,04,23,17,44,15.00